Weather History for KDTS - February, 2013

Change the Weather History Date:

Tuesday, February 5, 2013

  Actual Average Record
Temperature  
Mean Temperature 60 °F -  
Max Temperature 64 °F 58 °F 73 °F (2012)
Min Temperature 57 °F 44 °F 30 °F (2009)
Degree Days  
Heating Degree Days 4    
Growing Degree Days 10 (Base 50)    
Moisture  
Dew Point 56 °F    
Average Humidity 86    
Maximum Humidity 93    
Minimum Humidity 68    
Precipitation  
Precipitation 0.28 in - - ()
Sea Level Pressure  
Sea Level Pressure 30.01 in    
Wind  
Wind Speed 4 mph (ENE)    
Max Wind Speed 10 mph    
Max Gust Speed -    
Visibility 10 miles    
Events Rain    
Averages and records for this station are not official NWS values.
T = Trace of Precipitation, MM = Missing Value Source: NWS Daily Summary

Daily Weather History Graph

Daily Weather History Graph

Search for Another Location

Airport or City:

Trip Planner

Search our weather history database for the weather conditions in past years. The results will help you decide how hot, cold, wet, or windy it might be!

Date:

Astronomy

Feb. 05, 2013 Rise Set
Actual Time 6:33 AM CST 5:26 PM CST
Civil Twilight 6:09 AM CST 5:51 PM CST
Nautical Twilight 5:40 AM CST 6:19 PM CST
Astronomical Twilight 5:12 AM CST 6:47 PM CST
Moon 2:07 AM CST (2/5) 12:50 PM CST (2/5)
Length of Visible Light 11h 42m
Length of Day
10h 52m
Waning Crescent, 26% of the Moon is Illuminated
Feb 5
Waning Crescent
Feb 10
New
Feb 17
First Quarter
Feb 25
Full
Mar 4
Last Quarter

Hourly Weather History & Observations

Time (CST) Temp. Dew Point Humidity Pressure Visibility Wind Dir Wind Speed Gust Speed Precip Events Conditions
12:53 AM 64.9 °F 54.0 °F 68% 29.99 in 10.0 mi South 4.6 mph - N/A   Mostly Cloudy
1:53 AM 64.9 °F 55.9 °F 73% 29.99 in 10.0 mi Calm Calm - 0.00 in Rain Light Rain
2:53 AM 57.9 °F 55.0 °F 90% 30.00 in 8.0 mi Calm Calm - 0.02 in Rain Rain
3:53 AM 57.9 °F 55.0 °F 90% 30.00 in 10.0 mi NNE 3.5 mph - 0.03 in Rain Light Rain
4:53 AM 57.0 °F 54.0 °F 89% 30.00 in 8.0 mi Calm Calm - 0.06 in Rain Light Rain
5:53 AM 57.0 °F 54.0 °F 89% 30.01 in 10.0 mi ENE 4.6 mph - 0.05 in Rain Light Rain
6:53 AM 57.0 °F 54.0 °F 89% 30.04 in 5.0 mi Calm Calm - 0.08 in Rain Rain
7:53 AM 57.0 °F 55.0 °F 93% 30.03 in 10.0 mi SE 4.6 mph - 0.04 in Rain Light Rain
8:53 AM 60.1 °F 55.9 °F 86% 30.05 in 10.0 mi ESE 3.5 mph - 0.00 in   Overcast
9:53 AM 61.0 °F 57.0 °F 87% 30.04 in 10.0 mi NE 6.9 mph - N/A   Overcast
10:53 AM 61.0 °F 57.0 °F 87% 30.04 in 10.0 mi ENE 3.5 mph - N/A   Overcast
11:53 AM 64.9 °F 55.9 °F 73% 30.02 in 10.0 mi ESE 10.4 mph - N/A   Overcast
12:53 PM 64.9 °F 55.9 °F 73% 29.99 in 10.0 mi ESE 8.1 mph - 0.00 in   Overcast
1:25 PM 64.4 °F 57.2 °F 77% 29.99 in 10.0 mi East 4.6 mph - 0.00 in Rain Light Rain
1:53 PM 63.0 °F 57.9 °F 84% 29.98 in 6.0 mi East 8.1 mph - 0.00 in Rain Light Rain
2:23 PM 62.6 °F 59.0 °F 88% 29.98 in 10.0 mi East 5.8 mph - 0.00 in   Overcast
2:53 PM 64.0 °F 59.0 °F 84% 29.98 in 10.0 mi East 5.8 mph - 0.00 in   Overcast
3:16 PM 62.6 °F 59.0 °F 88% 29.97 in 10.0 mi NE 4.6 mph - N/A   Overcast
3:53 PM 62.1 °F 59.0 °F 90% 29.97 in 10.0 mi Variable 3.5 mph - N/A   Overcast
4:53 PM 62.1 °F 59.0 °F 90% 29.98 in 10.0 mi ENE 6.9 mph - 0.00 in   Overcast
5:53 PM 61.0 °F 57.9 °F 90% 29.98 in 10.0 mi NNE 6.9 mph - N/A   Overcast
6:53 PM 60.1 °F 57.0 °F 90% 30.00 in 10.0 mi NE 4.6 mph - N/A   Overcast
7:53 PM 60.1 °F 55.9 °F 86% 30.01 in 10.0 mi ENE 3.5 mph - N/A   Overcast
8:53 PM 59.0 °F 55.9 °F 90% 30.02 in 10.0 mi ENE 5.8 mph - N/A   Overcast
9:53 PM 60.1 °F 55.9 °F 86% 30.03 in 10.0 mi ENE 3.5 mph - N/A   Overcast
10:53 PM 59.0 °F 55.9 °F 90% 30.03 in 10.0 mi NE 3.5 mph - N/A   Overcast
11:53 PM 59.0 °F 57.0 °F 93% 30.04 in 10.0 mi Calm Calm - N/A   Overcast